Location: Rounton
(54.4000°N, 1.3500°W)
Time: 08:53:15
(UTC+00:00)

Vanguard 1 Rocket - Pass Details

Date: 06 December 2021
Orbit: 651 x 4224 km, 34.3° (Epoch: 19 January)

Event Time Altitude Azimuth Distance (km) Brightness Sun altitude
Rises 08:33:28 0° 270° (W) 6,673 11.4 1.6°
Reaches altitude 10° 08:39:31 10° 255° (WSW) 6,226 11.4 2.3°
Maximum altitude 08:51:51 19° 219° (SW) 6,256 11.8 3.5°
Drops below altitude 10° 09:06:32 10° 183° (S) 7,422 12.9 4.9°
Sets 09:15:15 0° 169° (S) 8,351 13.6 5.6°
